Weather History for Patuxent River, MD

Change the Weather History Date:

Saturday, February 8, 2014

  Actual Average Record
Temperature  
Mean Temperature 29 °F -  
Max Temperature 34 °F 39 °F 34 °F (2014)
Min Temperature 24 °F 23 °F 24 °F (2014)
Degree Days  
Heating Degree Days 36    
Moisture  
Dew Point 18 °F    
Average Humidity 62    
Maximum Humidity 88    
Minimum Humidity 43    
Precipitation  
Precipitation 0.00 in - - ()
Sea Level Pressure  
Sea Level Pressure 30.28 in    
Wind  
Wind Speed 6 mph (NNE)    
Max Wind Speed 14 mph    
Max Gust Speed -    
Visibility 10 miles    
Events      
Averages and records for this station are not official NWS values.
T = Trace of Precipitation, MM = Missing Value Source: NWS Daily Summary

Daily Weather History Graph

Daily Weather History Graph

Search for Another Location

Airport:

Trip Planner

Search our weather history database for the weather conditions in past years. The results will help you decide how hot, cold, wet, or windy it might be!

Date:

Astronomy

Feb. 08, 2014 Rise Set
Actual Time 7:03 AM EST 5:36 PM EST
Civil Twilight 6:36 AM EST 6:03 PM EST
Nautical Twilight 6:05 AM EST 6:34 PM EST
Astronomical Twilight 5:34 AM EST 7:05 PM EST
Moon 12:29 PM EST (2/8) 2:13 AM EST (2/8)
Length of Visible Light 11h 27m
Length of Day
10h 32m
Waxing Gibbous, 68% of the Moon is Illuminated
Feb 8
Waxing Gibbous
Feb 14
Full
Feb 22
Last Quarter
Mar 1
New
Mar 8
First Quarter

Hourly Weather History & Observations

Time (EST) Temp. Windchill Dew Point Humidity Pressure Visibility Wind Dir Wind Speed Gust Speed Precip Events Conditions
12:52 AM 26.1 °F - 23.0 °F 88% 30.34 in 10.0 mi Calm Calm - N/A   Clear
1:52 AM 28.9 °F - 24.1 °F 82% 30.34 in 10.0 mi Calm Calm - N/A   Clear
2:52 AM 30.9 °F 26.2 °F 25.0 °F 79% 30.34 in 10.0 mi NNW 4.6 mph - N/A   Clear
3:52 AM 32.0 °F 23.6 °F 25.0 °F 75% 30.32 in 10.0 mi NNE 10.4 mph - N/A   Clear
4:52 AM 32.0 °F 23.6 °F 18.0 °F 56% 30.32 in 10.0 mi North 10.4 mph - N/A   Clear
5:52 AM 30.9 °F 20.7 °F 18.0 °F 59% 30.32 in 10.0 mi NNE 13.8 mph - N/A   Clear
6:04 AM 30.9 °F 22.8 °F 17.1 °F 57% 30.33 in 10.0 mi NNE 9.2 mph - N/A   Overcast
6:52 AM 30.9 °F 22.2 °F 17.1 °F 57% 30.33 in 10.0 mi NNE 10.4 mph - N/A   Overcast
7:52 AM 30.0 °F 20.5 °F 17.1 °F 59% 30.34 in 10.0 mi NE 11.5 mph - N/A   Overcast
8:52 AM 30.9 °F 22.8 °F 17.1 °F 57% 30.35 in 10.0 mi NE 9.2 mph - N/A   Overcast
9:52 AM 30.9 °F 23.5 °F 16.0 °F 54% 30.34 in 10.0 mi NE 8.1 mph - N/A   Overcast
10:52 AM 30.9 °F 23.5 °F 16.0 °F 54% 30.33 in 10.0 mi North 8.1 mph - N/A   Overcast
11:52 AM 30.9 °F 26.2 °F 15.1 °F 52% 30.32 in 10.0 mi North 4.6 mph - N/A   Overcast
12:52 PM 30.9 °F 23.5 °F 15.1 °F 52% 30.29 in 10.0 mi North 8.1 mph - N/A   Overcast
1:52 PM 33.1 °F 26.1 °F 12.9 °F 43% 30.27 in 10.0 mi NNE 8.1 mph - N/A   Overcast
2:52 PM 34.0 °F 25.5 °F 16.0 °F 48% 30.23 in 10.0 mi NE 11.5 mph - N/A   Overcast
3:52 PM 32.0 °F 23.6 °F 18.0 °F 56% 30.22 in 10.0 mi NNE 10.4 mph - N/A   Mostly Cloudy
4:52 PM 30.9 °F 22.2 °F 17.1 °F 57% 30.22 in 10.0 mi North 10.4 mph - N/A   Mostly Cloudy
5:52 PM 30.0 °F 22.4 °F 17.1 °F 59% 30.22 in 10.0 mi North 8.1 mph - N/A   Mostly Cloudy
6:52 PM 30.0 °F 22.4 °F 18.0 °F 61% 30.22 in 10.0 mi North 8.1 mph - N/A   Overcast
7:52 PM 30.0 °F 21.7 °F 18.0 °F 61% 30.21 in 10.0 mi North 9.2 mph - N/A   Overcast
8:52 PM 28.0 °F 21.7 °F 18.0 °F 66% 30.21 in 10.0 mi North 5.8 mph - N/A   Clear
9:52 PM 26.1 °F - 17.1 °F 69% 30.22 in 10.0 mi Calm Calm - N/A   Clear
10:52 PM 24.1 °F 19.7 °F 17.1 °F 75% 30.22 in 10.0 mi NE 3.5 mph - N/A   Clear
11:52 PM 24.1 °F - 18.0 °F 77% 30.22 in 10.0 mi Calm Calm - N/A   Clear